Regional Weather Roundup
Issued by NWS

Home | Current Version | Previous Version | Graphics & Text | Print | Product List | Glossary On
Versions: 1 2 3 4 5 6 7 8 9 10 11 12 13 14 15 16 17 18 19 20 21 22 23 24 25 26 27 28 29 30 31 32 33 34 35 36 37 38 39 40 41 42 43 44 45 46 47 48 49 50
000
ASUS43 KFSD 240510
RWRSD

WEATHER ROUNDUP FOR SOUTH DAKOTA
NATIONAL WEATHER SERVICE SIOUX FALLS SD
1200 AM CDT SUN SEP 24 2017

NOTE: "FAIR" INDICATES FEW OR NO CLOUDS BELOW 12,000 FEET WITH NO
SIGNIFICANT WEATHER AND/OR OBSTRUCTIONS TO VISIBILITY.


SDZ001>005-009-010-012>017-240600-
NORTHWEST AND NORTH CENTRAL SOUTH DAKOTA

CITY           SKY/WX    TMP DP  RH WIND       PRES   REMARKS
BUFFALO          N/A     45  43  93 NE13      29.99F
FAITH            N/A     46  46 100 N15       30.00S
MOBRIDGE       LGT RAIN  53  52  96 N10       29.94F FOG
$$

SDZ012>016-024>037-041>051-057-063-072>074-240600-
SOUTHWEST AND SOUTH CENTRAL SOUTH DAKOTA

CITY           SKY/WX    TMP DP  RH WIND       PRES   REMARKS
RAPID CTY ARPT NOT AVBL
PIERRE         LGT RAIN  51  50  96 N8        29.92F
CUSTER         CLOUDY    40  37  89 W5        29.99F
ELLSWORTH AFB  LGT RAIN  45  45 100 N13       30.00F
PHILIP         LGT RAIN  49  49 100 N14       29.96F
PINE RIDGE     LGT RAIN  46  46 100 N7        29.98S
SPEARFISH      CLOUDY    43  43 100 NE7       30.04F FOG
WINNER         RAIN      52  51  97 NW8       29.93F FOG
$$

SDZ004>011-016>023-039-040-240600-
NORTHEAST SOUTH DAKOTA

CITY           SKY/WX    TMP DP  RH WIND       PRES   REMARKS
ABERDEEN       LGT RAIN  54  54 100 N9        29.90F
WATERTOWN      CLOUDY    59  59 100 E9        29.91F
BROOKINGS      MOCLDY    58  56  93 E12       29.93F
SISSETON         N/A     56  56 100 CALM      29.92F
$$

SDZ017-020-022-023-036>040-048>070-240600-
SOUTHEAST SOUTH DAKOTA

CITY           SKY/WX    TMP DP  RH WIND       PRES   REMARKS
SIOUX FALLS    CLOUDY    60  58  92 NE10      29.92F
HURON          RAIN      56  56 100 CALM      29.88F FOG
CHAMBERLAIN    HVY RAIN  54  54 100 NW7       29.92R
MITCHELL       CLOUDY    60  59  96 E6        29.88F
YANKTON        CLOUDY    59  57  93 E3        29.89F
$$

ABBREVIATIONS USED IN REMARKS
   TC - TEMPERATURE IN CELSIUS
  WCI - WIND CHILL INDEX
   HX - HEAT INDEX
  VSB - VISIBILITY





USA.gov is the U.S. government's official web portal to all federal, state and local government web resources and services.